CZ-6A DEB, 64640

Orbit data source: Space-Track

CZ-6A DEB, 64640 is space debris in LEO originally from a launch on Tue, 06 Aug 2024 UTC launched from the Taiyaun Space Center, China (TSC). Debris objects in space refer to the collection of defunct objects orbiting the Earth. Examples of debris include non-operational satellites, rocket bodies, and fragments generated from explosions, collisions, or faulty payload assembly.

Loading next visibility...
Identifier
64640, 2024-140AEE
Orbit
LEO
Country
Flag of CNCN / PRC
Related business
Manufacturer
SAST
Mission
Spacecraft
Bus & Motor
Unknown
Mass
Unknown
Launch date (UTC)
2024-08-06 (2 years ago)
Launch vehicle
Unknown
Launch site
Taiyaun Space Center, China (TSC)
Object type
Payload
Rocket body
Debris
Shape & HBR
Unknown shape, 0.1 m
Radar Cross Section
Small (<0.1 m²)

Expand to show TLE details & history
Last TLE update: 14 hours ago

TLE from 14 hours ago
0 CZ-6A DEB
1 64640U 24140AEE 26171.25922168  .00002141  00000-0  91940-3 0  9997
2 64640  89.0052 274.5496 0048196 166.8911 193.3546 14.23809373 90889
Epoch: 2026-06-20T06:13Z
TLE epoch observation values (Epoch: 2026-06-20T06:13:16.753Z)
Latitude
-0.00007°
Longitude
-87.24662°
Altitude
849.292 km
Speed
7.411 km/s
True Right ascension
18h 18m 11s
True Declination
0° 00' 00"
Sunlit
Object was in full shadow at epoch
Visualization orbit readout
Latitude
Unknown
Longitude
Unknown
Altitude
Unknown
Speed
Unknown
Apparent Right ascension
Unknown
Apparent Declination
Unknown
Sunlit
N/A
Visualization observer readout
Local Sidereal Time
07:19:15
Azimuth
Unknown
Elevation
Unknown
Doppler factor
Unknown
Orbital elements
Apogee altitude
844.085 km
Perigee altitude
774.803 km
Semi-major axis
7,187.581 km
Eccentricity
0.00482
Inclination
89.0052°
RAAN
274.5496°
Arg. of periapsis
166.8911°
True anomaly
193.22778°
Mean anomaly
193.3546°
Eccentric anomaly
193.29112°
Mean motion
3.5618 °/min
Orbital period
101.07 mins
BSTAR
0.0009194
Loading maneuver chart data...
Computing Atmospheric mass density...
Loading historical data...
Loading historical data...
Loading historical data...
Loading historical data...
Loading historical data...
Loading historical data...
Loading historical data...

Documentation

Showing up to 5 results
|